#timestamp,LO_Frequency,Hit,StdDev 
1626919215.0,286046999.1,N
1626919215.9,286046999.1,N
1626919235.8,286046998.3,N
1626919255.6,286046998.5,N
1626919275.4,286047000.9,N
1626919295.3,286046999.6,N
1626919315.1,286046998.7,N
1626919335.8,286046996.9,N
1626919355.7,286046995.0,Y
1626919375.5,286046998.1,P
1626919395.4,286046998.4,P
1626919415.2,286046997.7,P
1626919435.0,286046994.0,Y
1626919435.9,286046994.0,P
1626919455.8,286046997.2,N
1626919475.6,286046999.1,N
1626919495.4,286046998.0,N
1626919515.3,286046997.9,N
1626919535.1,286046999.6,N
1626919555.9,286046997.0,N
1626919575.7,286046996.4,N
1626919595.5,286046994.8,Y
1626919615.4,286046996.3,P
1626919635.2,286046996.3,P
1626919655.0,286046997.9,P
1626919655.9,286046997.9,N
1626919675.8,286046996.2,Y
1626919695.6,286046999.2,P
1626919715.5,286047000.8,N
1626919735.3,286046998.8,N
1626919755.1,286046998.4,N
1626919775.9,286046999.0,N
1626919795.7,286046997.1,N
1626919815.5,286046998.7,N
1626919835.4,286046999.6,N
1626919855.2,286046996.6,Y
1626919875.1,286046996.6,P
1626919876.0,286046996.6,P
1626919895.8,286046997.4,N
1626919915.6,286046996.7,Y
1626919935.5,286046999.7,P
1626919955.3,286047000.8,N
1626919975.2,286046999.0,N
1626919995.9,286046997.0,N
1626920015.7,286046997.6,N
1626920035.6,286046995.1,Y
1626920055.4,286046995.4,P
1626920075.3,286046998.0,N
1626920095.1,286046999.5,N
1626920096.0,286046999.5,N
1626920115.8,286046997.1,N
1626920135.7,286046995.4,Y
1626920155.5,286046998.9,P
1626920175.3,286046999.2,N
1626920195.2,286046999.2,N
1626920215.0,286046999.2,N
1626920215.9,286046999.2,N
1626920235.8,286046998.5,Y
1626920255.6,286047002.6,P
1626920275.4,286047002.1,N
1626920295.3,286047002.7,N
1626920315.1,286047002.7,N
1626920335.9,286046999.7,N
1626920355.7,286047000.4,N
1626920375.6,286047000.1,N
1626920395.4,286046999.4,N
1626920415.2,286046996.7,N
1626920435.1,286046997.2,N
1626920436.0,286046997.2,N
1626920455.8,286046996.9,N
1626920475.6,286046997.1,N
1626920495.5,286046998.8,N
1626920515.3,286046997.0,N
1626920535.2,286046997.0,N
1626920555.9,286046998.9,N
1626920575.7,286047000.8,N
1626920595.6,286046999.0,N
1626920615.4,286046998.5,N
1626920635.2,286047000.1,N
1626920655.1,286047002.7,N
1626920656.0,286047002.7,N
1626920675.8,286047002.6,N
1626920725.7,286047000.5,E
1626920735.6,286047000.9,N
1626920755.4,286046999.7,P
1626920775.3,286047001.2,N
1626920795.1,286047000.7,N
1626920815.9,286047000.6,N
1626920835.7,286046998.1,Y
1626920855.5,286046999.3,P
1626920875.4,286046994.9,P
1626920895.2,286046995.4,N
1626920915.0,286046997.6,N
1626920916.0,286046997.6,N
1626920935.8,286046997.6,N
1626920955.6,286046999.4,N
1626920975.5,286046998.8,N
1626920995.3,286046998.6,N
1626921015.1,286047000.8,N
1626921035.9,286047000.7,N
1626921055.7,286047001.0,N
1626921075.6,286047001.5,N
1626921095.4,286047002.2,N
1626921115.2,286047000.5,N
1626921135.1,286046998.4,N
1626921136.0,286046998.4,N
1626921155.8,286046997.4,N
1626921175.6,286046997.9,N
1626921195.5,286046999.5,N
1626921215.3,286046998.3,N
1626921235.1,286046998.2,N
1626921255.9,286047000.6,N
1626921275.7,286046999.7,N
1626921295.6,286047003.7,N
1626921315.5,286047007.6,Y
1626921335.4,286047010.3,P
1626921355.2,286047013.5,N
1626921375.0,286047017.2,N
1626921375.9,286047017.2,N
1626921395.8,286047014.2,N
1626921415.6,286047016.5,N
1626921435.5,286047018.5,Y
1626921455.3,286047005.9,P
1626921475.1,286047005.1,N
1626921495.9,286047004.8,N
1626921515.7,286047003.0,N
1626921535.6,286047004.1,N
1626921555.4,286047003.5,N
1626921575.2,286047003.6,N
1626921595.1,286047003.7,N
1626921596.0,286047003.7,N
1626921615.8,286047003.4,N
1626921635.6,286047003.2,N
1626921655.5,286047005.2,N
1626921675.3,286047003.4,N
1626921695.2,286047004.2,N
1626921715.9,286047003.1,N
1626921735.7,286047003.3,N
1626921755.6,286047004.0,N
1626921775.4,286047003.2,N
1626921795.3,286047003.8,N
1626921815.1,286047004.4,N
1626921816.0,286047004.4,N
1626921835.8,286047001.4,N
1626921855.7,286047003.7,N
1626921875.5,286047003.7,N
1626921895.3,286047001.3,N
1626921915.2,286047004.1,N
1626921935.0,286047003.6,N
1626921935.9,286047003.6,N
1626921955.8,286047001.4,N
1626921975.6,286047001.8,N
1626921995.4,286047002.5,N
1626922015.3,286047002.4,N
1626922035.1,286047002.4,N
1626922055.8,286047002.3,N
1626922075.7,286047000.2,N
1626922095.5,286046999.8,N
1626922115.4,286047002.3,N
1626922135.2,286047002.3,N
1626922155.0,286047002.8,N
1626922155.9,286047002.8,N
1626922175.8,286046999.8,N
1626922195.6,286047002.3,N
1626922215.5,286047002.0,N
1626922235.3,286047001.6,N
1626922255.1,286047001.5,N
1626922275.9,286047004.0,Y
1626922295.7,286046998.7,P
1626922315.5,286046998.2,N
1626922335.4,286047000.8,N
1626922355.2,286047000.0,N
1626922375.1,286047000.9,N
1626922376.0,286047000.9,N
1626922395.8,286047000.3,N
1626922415.6,286047000.9,N
1626922435.5,286046999.9,N
1626922455.3,286047002.5,N
1626922475.1,286047002.3,N
1626922495.9,286047003.9,N
1626922515.7,286047006.0,Y
1626922535.6,286047002.8,P
1626922555.4,286047001.9,N
1626922575.2,286047003.8,P
1626922595.1,286047001.3,N
1626922596.0,286047001.3,N
1626922615.8,286047004.2,Y
1626922635.7,286047001.9,P
1626922655.5,286047002.5,P
1626922675.3,286047003.6,P
1626922695.2,286047004.4,Y
1626922715.0,286046998.7,P
1626922715.9,286046998.7,N
1626922735.8,286046999.9,N
1626922755.6,286046999.7,N
1626922775.4,286047000.8,N
1626922795.3,286046998.4,N
